DEFMA EDDG-ZZZZ

Flight info

Callsign DEFMA
Flight time N/A
Altitude 2000
Route EDDG/07 VFR
Aircraft DA40/L-S/L

Departure

Time 2026-05-08 19:43
Airport Münster Osnabrück Airport (EDDG)

Arrival

Time N/A
Airport ZZZZ
Time Latitude Longitude Altitude Speed Heading
2026-05-08 19:43 52.22392 7.67658 1993 ft 133 kts 327°
2026-05-08 19:43 52.22903 7.66446 1992 ft 134 kts 283°
2026-05-08 19:43 52.22925 7.65038 2240 ft 113 kts 264°
2026-05-08 19:44 52.22880 7.63840 2531 ft 103 kts 263°
2026-05-08 19:44 52.22834 7.62666 2738 ft 104 kts 263°
2026-05-08 19:44 52.22771 7.61504 2845 ft 105 kts 263°
2026-05-08 19:44 52.22700 7.60285 2990 ft 109 kts 263°
2026-05-08 19:45 52.22631 7.59003 2998 ft 118 kts 263°
2026-05-08 19:45 52.22530 7.57641 2997 ft 123 kts 257°
2026-05-08 19:45 52.22340 7.56259 3000 ft 127 kts 255°
2026-05-08 19:45 52.22137 7.54844 2999 ft 129 kts 255°
2026-05-08 19:46 52.21932 7.53417 2999 ft 130 kts 255°
2026-05-08 19:46 52.21726 7.51981 2998 ft 130 kts 255°
2026-05-08 19:46 52.21104 7.49264 2993 ft 128 kts 237°
2026-05-08 19:47 52.20657 7.48003 2995 ft 128 kts 238°
2026-05-08 19:47 52.20227 7.46734 2994 ft 128 kts 239°
2026-05-08 19:47 52.19804 7.45454 2995 ft 128 kts 240°
2026-05-08 19:47 52.19385 7.44174 2993 ft 128 kts 239°
2026-05-08 19:48 52.18967 7.42894 2997 ft 128 kts 239°
2026-05-08 19:48 52.18549 7.41610 2998 ft 128 kts 239°
2026-05-08 19:48 52.18132 7.40330 2998 ft 128 kts 239°
2026-05-08 19:48 52.17717 7.39058 3001 ft 129 kts 240°
2026-05-08 19:49 52.17298 7.37770 3005 ft 129 kts 240°
2026-05-08 19:49 52.16917 7.36438 3001 ft 130 kts 245°
2026-05-08 19:49 52.16516 7.35096 3002 ft 130 kts 241°
2026-05-08 19:49 52.16120 7.33801 2998 ft 130 kts 244°
2026-05-08 19:50 52.15741 7.32456 2996 ft 130 kts 243°
2026-05-08 19:50 52.15365 7.31119 2997 ft 130 kts 244°
2026-05-08 19:50 52.14985 7.29786 2993 ft 130 kts 243°
2026-05-08 19:50 52.14604 7.28458 2991 ft 129 kts 243°
2026-05-08 19:51 52.14221 7.27133 2989 ft 129 kts 243°
2026-05-08 19:51 52.13839 7.25810 2990 ft 129 kts 243°
2026-05-08 19:51 52.13459 7.24492 2987 ft 128 kts 243°
2026-05-08 19:51 52.13078 7.23183 2989 ft 128 kts 243°
2026-05-08 19:52 52.12722 7.21962 2993 ft 128 kts 243°
2026-05-08 19:52 52.12337 7.20640 2987 ft 128 kts 242°
2026-05-08 19:52 52.11951 7.19343 3001 ft 127 kts 243°
2026-05-08 19:52 52.11585 7.18007 2969 ft 130 kts 245°
2026-05-08 19:53 52.11236 7.16658 2953 ft 130 kts 246°
2026-05-08 19:53 52.10884 7.15298 2939 ft 129 kts 244°
2026-05-08 19:53 52.10533 7.13948 2914 ft 131 kts 246°
2026-05-08 19:53 52.10220 7.12553 2919 ft 130 kts 251°
2026-05-08 19:54 52.09958 7.11166 2912 ft 131 kts 250°
2026-05-08 19:54 52.09615 7.09814 2937 ft 128 kts 244°
2026-05-08 19:54 52.09164 7.08601 2990 ft 125 kts 233°
2026-05-08 19:54 52.08681 7.07416 2991 ft 126 kts 235°
2026-05-08 19:55 52.08202 7.06212 2987 ft 127 kts 235°
2026-05-08 19:55 52.07725 7.04992 2988 ft 129 kts 236°
2026-05-08 19:55 52.07246 7.03760 2988 ft 129 kts 236°
2026-05-08 19:55 52.06766 7.02523 2987 ft 130 kts 236°
2026-05-08 19:56 52.06285 7.01283 2985 ft 130 kts 236°
2026-05-08 19:56 52.05801 7.00035 2945 ft 133 kts 235°
2026-05-08 19:56 52.05294 6.98731 2816 ft 139 kts 236°
2026-05-08 19:56 52.04774 6.97391 2685 ft 141 kts 235°
2026-05-08 19:57 52.04248 6.96039 2556 ft 142 kts 236°
2026-05-08 19:57 52.03721 6.94682 2427 ft 142 kts 236°
2026-05-08 19:57 52.03191 6.93317 2241 ft 144 kts 235°
2026-05-08 19:57 52.02657 6.91919 2017 ft 147 kts 236°
2026-05-08 19:58 52.02134 6.90501 1791 ft 146 kts 236°
2026-05-08 19:58 52.01611 6.89092 1572 ft 146 kts 236°
2026-05-08 19:58 52.01140 6.87639 1353 ft 146 kts 249°
2026-05-08 19:58 52.01093 6.86026 1247 ft 142 kts 282°
2026-05-08 19:59 52.01292 6.84453 1084 ft 142 kts 284°
2026-05-08 19:59 52.01534 6.82924 997 ft 137 kts 286°
2026-05-08 19:59 52.01560 6.81508 967 ft 121 kts 242°
2026-05-08 19:59 52.00969 6.80736 895 ft 104 kts 192°
2026-05-08 20:00 52.00367 6.80794 781 ft 84 kts 141°
2026-05-08 20:00 52.00025 6.81493 562 ft 77 kts 105°
2026-05-08 20:00 51.99891 6.82281 364 ft 69 kts 104°
2026-05-08 20:00 51.99755 6.83039 202 ft 70 kts 105°
2026-05-08 20:01 51.99640 6.83698 159 ft 47 kts 105°
2026-05-08 20:01 51.99536 6.84289 169 ft 71 kts 105°
2026-05-08 20:01 51.99384 6.85142 354 ft 81 kts 104°
2026-05-08 20:01 51.99228 6.85999 618 ft 80 kts 106°
2026-05-08 20:02 51.99094 6.86906 845 ft 82 kts 90°
2026-05-08 20:02 51.99296 6.87761 1069 ft 82 kts 64°
2026-05-08 20:02 51.99580 6.88582 1296 ft 83 kts 63°
2026-05-08 20:02 51.99801 6.89437 1507 ft 83 kts 83°
2026-05-08 20:03 51.99914 6.90368 1740 ft 85 kts 81°
2026-05-08 20:03 52.00030 6.91293 1969 ft 84 kts 81°
2026-05-08 20:03 52.00149 6.92226 2175 ft 85 kts 81°
2026-05-08 20:03 52.00245 6.93168 2375 ft 85 kts 84°
2026-05-08 20:04 52.00317 6.94129 2579 ft 86 kts 84°
2026-05-08 20:04 52.00382 6.95096 2793 ft 87 kts 85°
2026-05-08 20:04 52.00445 6.96068 2999 ft 87 kts 84°
2026-05-08 20:04 52.00505 6.97036 3235 ft 86 kts 84°
2026-05-08 20:05 52.00560 6.98021 3442 ft 88 kts 84°
2026-05-08 20:05 52.00610 6.99007 3652 ft 89 kts 84°
2026-05-08 20:05 52.00661 7.00028 3834 ft 92 kts 84°
2026-05-08 20:05 52.00707 7.01054 4053 ft 91 kts 84°
2026-05-08 20:06 52.00752 7.02087 4253 ft 93 kts 84°
2026-05-08 20:06 52.00792 7.03114 4464 ft 92 kts 85°
2026-05-08 20:06 52.00830 7.04158 4673 ft 93 kts 84°
2026-05-08 20:06 52.00868 7.05220 4877 ft 95 kts 85°
2026-05-08 20:07 52.00904 7.06294 5087 ft 96 kts 85°
2026-05-08 20:07 52.00944 7.07379 5289 ft 97 kts 84°
2026-05-08 20:07 52.00983 7.08481 5493 ft 98 kts 85°
2026-05-08 20:07 52.01026 7.09598 5659 ft 104 kts 84°
2026-05-08 20:08 52.01075 7.10850 5662 ft 117 kts 85°
2026-05-08 20:08 52.01134 7.12205 5664 ft 123 kts 85°
2026-05-08 20:08 52.01197 7.13614 5665 ft 127 kts 85°
2026-05-08 20:08 52.01263 7.15054 5665 ft 129 kts 85°
2026-05-08 20:09 52.01327 7.16515 5665 ft 130 kts 85°
2026-05-08 20:09 52.01391 7.17987 5665 ft 131 kts 85°
2026-05-08 20:09 52.01453 7.19461 5665 ft 131 kts 85°
2026-05-08 20:09 52.01516 7.20937 5665 ft 131 kts 85°
2026-05-08 20:10 52.01582 7.22411 5663 ft 131 kts 85°
2026-05-08 20:10 52.01649 7.23914 5524 ft 140 kts 85°
2026-05-08 20:10 52.01721 7.25556 5264 ft 150 kts 85°
2026-05-08 20:10 52.01792 7.27262 5008 ft 153 kts 85°
2026-05-08 20:11 52.01864 7.28982 4748 ft 153 kts 85°
2026-05-08 20:11 52.01938 7.30700 4487 ft 152 kts 85°
2026-05-08 20:11 52.02017 7.32408 4228 ft 151 kts 85°
2026-05-08 20:11 52.02098 7.34097 3971 ft 149 kts 85°
2026-05-08 20:12 52.02153 7.35205 3802 ft 148 kts 85°
2026-05-08 20:12 52.02240 7.36861 3553 ft 147 kts 85°
2026-05-08 20:12 52.02333 7.38507 3296 ft 146 kts 85°
2026-05-08 20:12 52.02428 7.40147 3038 ft 145 kts 85°
2026-05-08 20:13 52.02524 7.41767 2791 ft 144 kts 85°
2026-05-08 20:13 52.02625 7.43381 2529 ft 143 kts 85°
2026-05-08 20:13 52.02724 7.44976 2269 ft 142 kts 85°
2026-05-08 20:13 52.02829 7.46558 2025 ft 140 kts 85°
2026-05-08 20:14 52.02940 7.48058 2004 ft 127 kts 85°
2026-05-08 20:14 52.03046 7.49442 2007 ft 120 kts 85°
2026-05-08 20:14 52.03190 7.50761 2008 ft 117 kts 81°
2026-05-08 20:14 52.03346 7.52050 2008 ft 116 kts 81°
2026-05-08 20:15 52.03499 7.53329 2009 ft 115 kts 81°
2026-05-08 20:15 52.03717 7.54590 2007 ft 116 kts 75°
2026-05-08 20:15 52.03952 7.55839 2006 ft 115 kts 75°
2026-05-08 20:15 52.04190 7.57077 2002 ft 115 kts 76°
2026-05-08 20:16 52.04439 7.58319 1999 ft 116 kts 75°
2026-05-08 20:16 52.04736 7.59541 1982 ft 118 kts 66°
2026-05-08 20:16 52.05118 7.60717 1994 ft 117 kts 64°
2026-05-08 20:16 52.05667 7.61708 1971 ft 124 kts 39°
2026-05-08 20:17 52.06487 7.62295 1870 ft 131 kts 22°
2026-05-08 20:17 52.07362 7.62725 1778 ft 134 kts 20°
2026-05-08 20:17 52.08292 7.63136 1586 ft 139 kts 19°
2026-05-08 20:17 52.09227 7.63536 1444 ft 139 kts 19°
2026-05-08 20:18 52.10172 7.63916 1265 ft 138 kts 18°
2026-05-08 20:18 52.11020 7.64212 1125 ft 109 kts 18°
2026-05-08 20:18 52.11708 7.64492 902 ft 96 kts 21°
2026-05-08 20:18 52.12289 7.64841 738 ft 81 kts 31°
2026-05-08 20:19 52.12716 7.65324 546 ft 74 kts 47°
2026-05-08 20:19 52.12949 7.66047 357 ft 73 kts 71°
2026-05-08 20:19 52.13110 7.66808 218 ft 72 kts 70°
2026-05-08 20:19 52.13256 7.67499 158 ft 51 kts 70°
2026-05-08 20:20 52.13350 7.67934 161 ft 33 kts 71°
2026-05-08 20:20 52.13394 7.68202 162 ft 15 kts 101°
2026-05-08 20:20 52.13322 7.68282 161 ft 9 kts 166°
2026-05-08 20:20 52.13302 7.68293 161 ft 0 kts 159°
2026-05-08 20:21 52.13276 7.68308 161 ft 9 kts 161°
2026-05-08 20:21 52.13204 7.68345 161 ft 12 kts 160°
2026-05-08 20:21 52.13138 7.68372 161 ft 5 kts 238°
2026-05-08 20:21 52.13129 7.68314 161 ft 3 kts 268°
2026-05-08 20:22 52.13129 7.68313 161 ft 0 kts 271°